Powrót do katalogu

CZ-4 DEB

AktywnySSO
NORAD 26208·DEBRIS·🇨🇳 China

Wystrzelony Oct 14, 1999 z Taiyuan Satellite Launch Center

Loading…

Następne Przeloty (najbliższe 24 godziny)

TLE

ŚwieżeSource: Space-Track

Epoka: Sep 14, 2026, 10:15 UTC

1 26208U 99057CW  26257.42722888  .00000390  00000-0  99052-4 0  9992
2 26208  98.5532 238.0869 0068534 218.5076 295.2103 14.55156971400339

Śledź CZ-4 DEB w czasie rzeczywistym z AllMySat

Download on the App Store